Location: *
(23.5860°S, 65.4036°W)
Time: 01:28:25
(UTC+00:00)

Envisat - Pass Details

Date: 25 August 2019
Orbit: 764 x 766 km, 98.1° (Epoch: 23 October)

Event Time Altitude Azimuth Distance (km) Brightness Sun altitude
Rises 23:28:50 0° 173° (S) 3,253 6.2 -19.0°
Reaches altitude 10° 23:31:11 10° 176° (S) 2,320 5.4 -19.6°
Maximum altitude 23:36:13 63° 256° (WSW) 859 3.4 -20.7°
Drops below altitude 10° 23:41:13 10° 336° (NNW) 2,296 5.8 -21.9°
Sets 23:43:32 0° 339° (NNW) 3,215 6.5 -22.4°
